Location: Dunedin
(45.8900°S, 170.5000°E)
Time: 01:51:17
(UTC+13:00)

ISS - Visible Passes

Search period start: 24 February 2024 00:00
Search period end: 05 March 2024 00:00
Orbit: 414 x 417 km, 51.6° (Epoch: 23 February)

Date Brightness Start Highest point End Pass type
(mag) Time Alt. Az. Time Alt. Az. Time Alt. Az.
24 Feb -2.8 21:14:56 10° SW 21:18:11 40° SSE 21:21:27 10° E visible
24 Feb -2.9 22:51:41 10° WSW 22:54:27 45° WNW 22:54:27 45° WNW visible
25 Feb -3.8 22:02:57 10° WSW 22:06:23 81° NNW 22:07:34 38° NE visible
26 Feb -3.6 21:14:14 10° WSW 21:17:39 69° SSE 21:20:42 12° ENE visible
26 Feb -1.7 22:51:25 10° W 22:53:35 21° WNW 22:53:35 21° WNW visible
27 Feb -2.6 22:02:21 10° WSW 22:05:30 35° NW 22:06:45 25° N visible
28 Feb -3.3 21:13:26 10° WSW 21:16:47 56° NW 21:19:57 11° NE visible
29 Feb -1.2 22:02:16 10° W 22:04:18 15° NW 22:06:05 11° NNW visible
01 Mar -1.8 21:12:49 10° W 21:15:38 24° NW 21:18:25 10° NNE visible
